Temperature
20 20 21 22 21 21 20 19 18 19 19 19 19 20 20 21 22 22 22 22 22 22 22 22 21 21 21 20 20 19 18 18 17 17 16 15 15 15 15 14 14 14 14 14
20 20 20 21 21 21 20 20 19 19 19 19 20 20 20 21 21 21 21 21 21 22 21 21 21 21 21 20 20 19 18 18 18 17 16 16 15 15 15 15 15 14 14 14
17 18 19 19 20 21 20 19 19 18 18 18 18 19 19 20 20 20 20 21 21 21 21 21 21 21 21 21 20 19 19 18 18 17 17 16 16 15 15 15 15 15 15 14
16 18 19 19 19 20 19 19 18 18 18 18 18 19 19 19 19 20 20 20 21 21 21 21 21 21 21 20 20 19 19 19 18 17 17 16 16 16 16 15 15 15 15 15
15 17 18 18 19 20 19 18 17 17 17 18 19 19 18 19 19 19 19 20 20 20 21 21 21 21 20 20 20 19 19 19 18 18 17 17 16 16 16 16 15 15 15 15
15 17 17 18 19 20 18 16 17 17 16 17 17 15 16 18 18 18 19 19 20 20 20 20 20 20 20 20 19 19 19 19 19 18 18 17 17 16 16 16 15 15 15 15
15 15 16 17 18 18 17 15 16 16 16 16 15 15 16 17 17 18 18 18 19 19 19 19 19 19 19 19 19 19 19 19 19 18 18 18 17 17 16 16 15 15 15 15
14 15 15 16 17 16 15 16 16 16 16 16 16 16 16 16 17 17 17 17 17 18 18 18 18 19 19 19 19 19 19 19 19 18 18 18 17 17 16 16 15 15 15 15
14 14 15 16 16 16 16 15 15 15 15 15 15 15 15 15 15 16 16 16 16 16 17 17 18 18 18 18 18 18 19 18 18 18 18 18 17 17 16 16 15 15 15 15
13 14 14 15 15 15 15 15 15 15 15 15 14 14 14 14 14 14 15 15 15 15 16 16 17 17 17 17 18 18 18 18 18 18 18 18 17 17 17 16 16 15 15 15
12 12 14 14 14 14 14 14 14 14 14 14 14 14 13 13 13 13 13 14 14 14 14 15 15 16 16 16 17 17 17 17 17 18 18 17 17 17 17 17 16 16 16 15
12 13 12 13 14 14 14 13 13 13 13 13 13 13 13 12 12 12 12 12 12 13 13 13 14 15 15 15 16 16 16 16 17 17 17 17 17 17 17 16 16 16 15 15
14 14 14 13 13 13 13 13 13 13 12 12 12 12 12 12 12 12 12 11 11 11 12 12 13 13 14 14 14 15 15 16 16 16 16 17 17 16 16 16 15 15 15 15
14 13 13 13 13 12 12 12 12 12 12 12 11 11 11 11 11 11 11 11 11 11 11 11 12 12 13 13 13 14 15 15 15 15 15 16 16 16 16 16 16 15 15 14
13 13 12 12 12 12 12 12 11 11 11 11 10 10 10 10 10 10 10 10 10 10 10 10 11 11 12 12 12 13 13 14 14 14 15 15 15 16 16 16 15 15 15 14
12 12 12 12 11 11 11 11 11 10 10 10 10 10 10 9 9 9 9 9 9 9 9 10 10 10 11 11 11 12 12 13 13 13 14 14 15 15 15 15 15 15 14 14
11 11 11 11 11 10 10 10 10 10 10 10 9 9 9 9 9 9 9 9 9 9 9 9 9 9 10 10 10 11 11 12 12 13 13 13 14 14 14 14 14 14 14 14
11 11 10 10 10 10 9 9 9 9 9 9 9 9 9 9 8 8 8 8 8 8 8 8 8 8 9 9 9 10 10 11 11 12 12 13 13 13 14 14 14 14 14 13
10 10 10 10 9 9 9 9 9 9 9 9 8 8 8 8 8 8 8 8 8 8 8 8 8 8 8 8 9 9 9 10 10 11 11 12 12 13 13 13 13 13 13 13
10 10 9 9 9 9 9 8 8 8 8 8 8 8 8 8 8 8 8 7 7 7 7 7 7 7 7 8 8 8 8 9 9 10 10 11 12 12 12 13 13 13 12 13
9 9 9 9 9 8 8 8 8 8 8 8 8 7 7 7 7 7 7 7 7 7 7 7 6 7 7 7 7 7 8 8 8 9 9 10 11 11 12 12 12 12 12 12
9 9 8 8 8 8 8 8 8 7 7 7 7 7 7 7 7 7 7 7 7 6 6 6 6 6 6 6 6 7 7 7 7 8 9 9 10 10 11 11 11 11 11 11
8 8 8 8 8 7 7 7 7 7 7 7 7 7 7 6 6 6 6 6 6 6 6 6 6 5 5 6 6 6 6 7 7 7 8 8 9 9 10 10 10 10 10 10
8 8 7 7 7 7 7 7 7 7 7 7 7 6 6 6 6 6 6 6 6 5 5 5 5 5 5 5 6 6 6 6 6 7 7 7 8 8 9 9 9 9 9 9
7 7 7 7 7 7 6 6 6 6 6 6 6 6 6 6 6 6 6 5 5 5 5 5 5 5 5 5 5 5 5 6 6 6 6 7 7 7 8 8 8 8 8 8
7 7 7 7 6 6 6 6 6 6 6 6 6 6 6 6 6 5 5 5 5 5 5 5 5 5 5 5 5 5 5 5 5 6 6 6 6 6 7 7 7 7 7 7
6 6 6 6 6 6 6 6 6 6 6 6 5 5 5 5 5 5 5 5 5 5 5 5 4 4 4 4 4 5 5 5 5 5 5 6 6 6 6 6 6 6 6 6
Wind_Speed
5 5 3 4 6 6 5 8 8 8 6 8 7 4 4 4 5 5 4 3 3 5 6 7 8 10 11 12 11 12 12 12 12 10 9 9 8 8 7 6 6 5 5 5
5 6 6 6 7 6 5 4 5 3 3 6 3 3 5 6 6 6 5 5 5 5 5 6 8 10 11 12 12 12 13 13 11 10 9 9 9 8 7 7 6 5 5 5
4 7 6 6 5 2 2 2 1 2 4 4 4 6 6 7 8 7 7 6 5 5 6 7 8 9 11 13 11 12 13 12 12 11 11 11 10 9 9 8 6 5 5 5
2 3 4 6 3 1 4 5 4 2 3 3 1 2 5 7 7 8 9 9 7 7 7 7 6 6 8 8 11 13 13 13 12 12 12 11 10 10 9 7 7 6 6 6
3 2 6 6 6 3 2 3 6 4 5 6 4 5 7 9 8 7 8 8 7 7 6 5 5 4 5 6 9 11 13 14 13 13 13 12 12 11 9 7 7 7 6 6
4 3 5 5 8 6 5 2 6 5 6 6 6 5 6 11 10 10 10 9 10 8 6 5 5 3 4 7 8 11 14 14 13 13 14 14 14 11 8 7 8 7 6 6
5 5 5 5 7 4 3 3 4 4 5 5 3 3 7 9 9 9 9 10 11 10 8 7 5 2 3 6 10 13 11 11 12 14 15 14 12 10 8 8 8 7 7 5
3 4 6 5 4 3 3 1 1 3 3 3 3 5 7 9 10 11 11 11 11 10 10 8 5 3 5 7 9 8 7 9 11 13 14 12 11 10 9 10 9 8 6 5
5 5 2 3 3 2 2 1 1 2 3 3 4 6 7 8 9 10 11 11 10 10 11 10 7 5 7 8 6 5 7 9 11 11 12 11 13 12 9 9 9 8 7 6
1 2 2 2 3 2 2 1 1 2 2 3 4 5 6 7 8 9 10 10 10 11 12 12 11 9 8 8 5 4 7 9 9 10 10 10 10 11 10 10 10 9 9 8
4 5 3 2 2 1 1 1 2 3 3 3 4 5 5 6 7 8 9 9 9 10 11 13 12 11 10 7 5 5 6 7 7 9 10 9 9 9 11 11 12 12 10 10
7 6 4 6 5 3 2 3 3 3 4 4 4 5 5 6 6 7 9 9 10 11 12 13 13 12 11 8 6 6 5 6 6 6 7 8 7 4 3 6 11 15 14 12
6 5 5 5 4 3 3 4 4 3 4 4 4 4 5 6 6 7 9 10 11 12 12 13 13 12 11 9 7 7 7 6 6 6 7 8 9 10 7 2 2 9 13 15
4 3 3 4 4 4 3 3 3 3 3 4 4 4 5 6 7 8 10 11 11 12 12 12 12 12 11 10 9 8 7 8 7 7 8 9 10 10 10 10 8 5 7 12
5 4 5 4 3 3 2 2 2 4 4 5 5 5 6 7 9 10 10 11 11 12 12 12 13 12 11 10 10 9 8 6 6 6 7 8 9 9 9 11 10 8 5 6
4 3 2 2 3 3 2 2 3 4 5 5 6 7 8 8 9 10 10 10 11 13 13 13 13 12 11 10 10 9 8 10 8 6 7 8 8 9 10 10 11 11 11 10
2 2 3 3 3 3 3 4 4 5 5 6 7 8 8 9 9 10 11 10 11 12 12 12 13 12 11 10 10 9 8 8 10 7 7 9 9 11 11 11 12 12 12 12
5 5 5 5 4 4 4 4 5 5 6 7 8 8 8 9 10 10 11 11 11 12 11 11 12 12 11 11 10 9 8 7 7 7 7 8 10 10 11 12 13 13 9 11
4 4 4 5 5 5 5 6 6 6 7 8 8 9 9 10 10 11 10 10 11 13 13 12 18 14 11 12 14 8 8 8 8 7 7 9 10 9 10 11 12 12 12 12
4 4 5 6 6 5 6 7 7 7 8 8 9 9 10 11 11 11 10 10 9 10 11 14 14 11 11 11 15 8 8 8 8 7 6 7 8 9 10 11 11 12 13 13
5 5 5 6 6 7 7 7 8 9 9 9 9 10 11 12 11 10 10 11 11 11 12 16 11 10 10 11 14 9 8 8 8 7 7 7 7 8 9 10 11 12 13 13
5 5 6 7 7 8 8 8 8 9 10 10 10 10 11 11 11 11 11 10 11 15 12 9 9 13 15 16 9 9 8 8 7 7 6 6 6 7 8 9 10 11 12 12
7 7 7 8 8 9 9 8 9 9 10 10 11 11 11 10 9 9 11 9 9 15 12 9 14 20 21 12 8 9 9 8 7 6 6 6 6 6 6 8 9 10 11 11
8 8 8 8 7 7 9 10 10 9 10 10 10 10 10 9 9 9 9 13 16 17 11 12 19 20 18 9 8 8 8 7 7 6 6 5 5 4 5 6 7 8 10 12
8 8 8 8 7 8 9 9 9 10 10 9 10 11 10 8 9 10 10 11 15 16 10 13 19 19 12 8 8 8 7 7 7 6 5 4 4 4 5 6 8 10 11 11
8 7 8 8 8 7 7 7 7 7 8 9 9 9 9 8 9 9 9 10 13 14 11 9 9 11 8 8 8 8 7 6 6 5 4 4 4 4 5 6 9 9 10 10
8 7 6 6 7 7 7 7 8 8 8 8 9 9 9 8 8 9 10 10 9 9 9 8 8 7 7 7 7 7 5 4 4 3 3 3 4 4 6 8 8 8 9 10
Wind_Direction
236 258 267 266 276 269 224 209 207 241 241 269 281 289 314 340 355 4 343 306 251 230 227 225 218 211 205 202 196 190 188 193 200 201 197 197 197 199 199 200 203 200 197 204
327 322 337 313 298 283 260 244 229 235 274 284 295 25 20 8 9 5 342 314 287 266 251 236 226 219 211 205 199 190 193 200 199 193 193 196 198 197 197 203 207 201 206 206
288 311 354 311 283 273 321 327 177 200 262 309 27 31 21 15 12 357 340 326 308 285 260 246 237 222 215 211 197 192 198 200 196 192 194 199 199 194 199 203 201 208 216 211
235 357 260 251 284 128 95 35 33 54 358 2 11 73 43 28 14 356 347 339 323 301 284 266 251 237 220 205 194 197 200 201 198 194 197 196 193 197 202 199 201 210 216 214
150 219 273 300 313 296 166 36 4 27 12 4 352 19 8 1 358 349 342 334 320 306 288 278 271 257 217 204 201 201 205 205 201 196 195 193 197 201 201 197 202 206 207 208
152 186 238 267 303 317 103 51 347 25 26 9 25 23 322 330 342 348 346 345 340 331 327 309 289 274 222 213 206 212 214 211 203 196 195 197 201 200 195 195 202 202 208 208
194 215 250 280 305 29 102 252 319 23 33 28 29 262 287 323 343 346 344 342 347 344 335 314 305 289 254 231 225 225 220 211 202 198 199 200 198 193 190 192 193 197 204 212
162 194 249 317 32 93 202 221 18 29 25 18 339 327 337 343 343 344 345 344 345 343 332 324 321 302 279 256 246 237 221 211 206 203 202 200 192 192 188 186 188 195 198 211
192 211 239 10 77 93 121 94 1 349 334 344 346 340 340 339 338 337 337 336 336 335 331 329 325 306 279 278 275 248 224 219 213 206 203 193 191 191 187 186 191 196 196 205
293 267 325 5 52 60 75 60 327 324 328 344 332 327 330 333 334 335 332 332 331 333 333 328 323 311 289 289 288 256 236 227 216 204 202 197 193 192 191 192 194 196 198 202
276 272 314 323 326 318 341 1 344 326 315 313 314 316 318 323 325 324 325 325 328 326 321 318 319 313 306 306 292 264 251 237 222 209 200 198 196 197 196 201 198 195 200 195
245 242 228 259 267 281 302 311 309 315 319 318 310 307 314 313 314 318 321 322 324 323 320 317 316 316 311 308 297 265 259 246 230 217 204 195 187 185 202 202 202 198 192 185
231 245 233 244 255 263 266 280 295 305 306 313 315 311 314 310 313 317 319 319 317 315 314 315 314 313 316 309 302 277 256 252 237 222 211 199 191 188 186 177 165 190 187 183
250 242 260 261 263 270 271 285 304 315 312 304 306 309 310 309 310 314 313 310 308 309 309 312 313 311 314 314 303 291 275 257 243 227 217 209 202 199 192 185 183 186 192 186
253 228 228 244 254 274 291 317 338 323 314 308 304 304 305 306 305 304 305 308 310 310 308 309 310 309 312 314 307 294 284 272 255 241 227 218 207 199 196 192 186 174 162 178
244 246 235 242 263 280 295 305 297 293 295 296 299 298 296 294 295 299 303 308 311 309 306 307 306 305 309 312 308 299 285 282 277 252 233 222 208 198 196 193 187 183 184 180
198 241 257 264 263 273 275 270 266 275 285 291 292 293 295 298 300 301 303 303 299 298 299 299 300 302 306 311 307 299 290 281 278 265 239 224 213 204 200 196 194 193 193 185
203 209 216 226 239 255 267 272 273 276 279 282 290 294 293 292 291 293 296 301 304 305 301 298 299 304 306 308 308 299 291 281 271 264 253 236 222 209 202 199 197 192 183 182
218 224 232 239 242 245 253 266 271 271 276 282 288 289 287 286 285 287 292 298 302 305 303 302 308 309 303 304 309 296 290 285 279 273 263 246 232 215 204 199 196 190 183 179
232 236 240 247 251 252 260 267 273 278 280 281 285 289 291 289 288 289 290 289 284 282 288 297 303 298 296 299 308 297 288 281 276 272 269 255 236 219 207 200 193 188 184 184
240 248 255 259 264 265 262 265 272 279 283 283 283 284 286 287 287 287 287 292 290 286 290 297 299 293 294 298 305 296 287 282 276 269 263 256 245 225 208 198 192 188 184 182
241 246 255 261 266 271 271 268 268 273 277 281 282 282 285 288 289 287 279 276 284 294 297 289 289 293 300 303 296 290 282 277 272 266 259 254 244 227 209 198 192 186 181 177
244 246 252 257 260 266 274 274 270 271 274 277 280 280 279 280 282 283 289 286 284 294 298 287 292 298 302 303 291 287 281 275 269 262 256 250 240 226 207 194 188 178 172 169
247 250 253 257 261 268 274 277 275 274 273 275 274 272 275 282 285 277 274 287 295 296 292 286 294 299 302 296 285 282 275 270 265 259 254 249 235 217 198 182 176 168 163 159
250 254 257 260 262 264 265 269 276 278 279 279 278 277 276 269 269 280 283 284 291 295 290 293 299 302 301 290 283 276 270 264 262 256 245 234 220 202 186 176 170 164 161 159
250 251 252 249 250 257 261 264 268 272 276 281 283 281 280 277 274 278 282 283 282 289 289 285 287 292 290 287 285 278 270 269 267 258 240 221 202 188 175 166 158 158 157 155
255 256 259 266 265 258 257 259 262 268 269 271 278 280 279 279 280 283 285 286 285 284 284 282 280 280 282 282 283 281 275 266 254 242 227 208 191 180 170 161 157 154 152 151
Height
1503 1500 1497 1497 1496 1495 1499 1503 1510 1503 1500 1493 1487 1484 1481 1479 1476 1475 1473 1473 1473 1472 1472 1472 1473 1473 1474 1475 1477 1479 1481 1483 1484 1486 1487 1489 1490 1491 1492 1493 1493 1493 1494 1494
1504 1497 1497 1497 1493 1492 1493 1493 1496 1495 1495 1487 1484 1482 1480 1478 1476 1475 1473 1472 1471 1470 1470 1469 1469 1469 1470 1471 1473 1475 1476 1478 1480 1482 1484 1485 1487 1488 1489 1490 1490 1491 1491 1491
1514 1505 1501 1505 1494 1491 1492 1491 1492 1497 1494 1486 1484 1482 1481 1479 1477 1476 1474 1472 1470 1468 1467 1466 1466 1465 1465 1466 1468 1470 1471 1473 1475 1477 1479 1481 1483 1484 1485 1486 1487 1488 1488 1489
1516 1510 1515 1503 1488 1488 1490 1491 1490 1489 1488 1485 1484 1483 1482 1480 1478 1476 1473 1471 1468 1466 1465 1463 1463 1462 1462 1463 1464 1465 1467 1468 1471 1473 1474 1477 1479 1480 1482 1483 1484 1484 1485 1485
1518 1517 1511 1498 1489 1487 1490 1496 1492 1490 1488 1485 1483 1480 1480 1480 1478 1476 1473 1471 1468 1466 1463 1461 1460 1459 1458 1459 1459 1461 1462 1463 1465 1467 1469 1472 1473 1475 1477 1478 1480 1480 1481 1482
1516 1515 1515 1502 1488 1483 1487 1499 1494 1490 1489 1486 1483 1488 1485 1480 1478 1475 1472 1469 1466 1463 1461 1459 1457 1456 1455 1455 1455 1455 1456 1458 1460 1462 1464 1466 1468 1470 1472 1474 1475 1476 1477 1478
1513 1514 1507 1494 1487 1485 1500 1503 1494 1491 1490 1488 1487 1489 1485 1480 1477 1474 1471 1468 1465 1462 1459 1457 1455 1453 1452 1451 1450 1450 1451 1453 1454 1456 1458 1460 1463 1465 1467 1469 1470 1471 1472 1473
1511 1514 1509 1492 1489 1494 1497 1494 1493 1491 1490 1488 1487 1485 1482 1479 1475 1472 1469 1466 1463 1460 1457 1455 1453 1451 1448 1447 1446 1446 1446 1447 1448 1449 1452 1454 1457 1459 1461 1463 1464 1466 1467 1467
1503 1504 1496 1492 1492 1492 1492 1491 1491 1489 1488 1486 1484 1482 1479 1477 1474 1470 1467 1464 1461 1458 1454 1452 1450 1448 1445 1443 1442 1441 1441 1441 1442 1443 1445 1447 1450 1452 1454 1456 1458 1459 1461 1462
1498 1495 1493 1492 1491 1491 1491 1490 1489 1488 1486 1484 1482 1479 1477 1474 1471 1468 1465 1462 1458 1455 1451 1448 1446 1444 1441 1439 1437 1436 1435 1435 1435 1437 1438 1440 1442 1445 1447 1449 1451 1452 1454 1455
1497 1494 1491 1490 1490 1489 1488 1487 1485 1484 1483 1481 1479 1476 1474 1471 1468 1465 1462 1458 1455 1452 1448 1444 1441 1438 1436 1434 1432 1430 1429 1429 1429 1430 1431 1432 1435 1437 1439 1441 1443 1445 1447 1449
1493 1489 1490 1488 1487 1486 1484 1483 1481 1480 1478 1477 1475 1472 1470 1467 1465 1462 1458 1455 1451 1448 1444 1440 1436 1433 1431 1428 1426 1424 1423 1422 1422 1423 1424 1425 1427 1429 1431 1434 1437 1439 1442 1444
1486 1485 1485 1484 1484 1483 1481 1479 1478 1476 1474 1472 1470 1469 1466 1463 1461 1458 1454 1451 1447 1443 1439 1436 1432 1428 1426 1423 1420 1418 1417 1416 1415 1416 1416 1418 1419 1421 1423 1426 1429 1432 1435 1437
1482 1482 1481 1480 1480 1479 1477 1475 1474 1472 1470 1468 1466 1464 1461 1459 1456 1453 1450 1446 1443 1439 1435 1431 1427 1423 1420 1417 1414 1412 1410 1409 1408 1408 1409 1410 1411 1413 1415 1418 1420 1423 1427 1430
1478 1477 1477 1476 1475 1474 1473 1471 1469 1467 1466 1463 1461 1459 1456 1454 1451 1448 1445 1441 1437 1433 1429 1425 1421 1417 1415 1411 1408 1405 1403 1402 1401 1400 1401 1401 1403 1405 1407 1409 1412 1415 1419 1423
1473 1472 1471 1470 1470 1469 1468 1466 1465 1463 1461 1459 1457 1454 1452 1449 1446 1442 1439 1436 1432 1427 1424 1420 1415 1412 1409 1405 1401 1398 1396 1394 1393 1392 1392 1393 1394 1396 1398 1401 1404 1407 1410 1414
1468 1468 1467 1466 1466 1464 1463 1462 1461 1459 1457 1454 1452 1449 1446 1443 1440 1437 1433 1430 1426 1422 1418 1414 1409 1406 1402 1399 1395 1391 1389 1387 1385 1384 1384 1384 1385 1387 1389 1392 1395 1398 1402 1406
1464 1464 1464 1463 1462 1461 1459 1458 1456 1454 1452 1450 1447 1444 1441 1438 1434 1431 1427 1423 1419 1415 1412 1408 1403 1399 1395 1392 1388 1385 1382 1379 1377 1376 1375 1376 1376 1378 1380 1383 1386 1390 1394 1398
1459 1459 1459 1458 1458 1456 1455 1453 1451 1449 1447 1445 1442 1439 1436 1432 1429 1425 1421 1417 1413 1409 1404 1401 1396 1392 1388 1385 1382 1378 1375 1372 1370 1368 1368 1368 1368 1370 1372 1374 1377 1381 1386 1390
1455 1455 1455 1454 1452 1451 1449 1448 1446 1444 1441 1439 1436 1433 1429 1426 1423 1419 1415 1411 1408 1404 1399 1394 1390 1385 1382 1378 1374 1371 1368 1366 1364 1361 1360 1360 1360 1361 1363 1366 1369 1373 1377 1381
1451 1450 1449 1448 1447 1446 1444 1442 1440 1438 1436 1433 1430 1427 1423 1419 1416 1413 1408 1403 1400 1397 1392 1387 1383 1379 1375 1371 1367 1364 1361 1359 1357 1354 1353 1352 1352 1354 1356 1358 1361 1365 1369 1374
1446 1445 1444 1443 1441 1440 1438 1436 1434 1432 1429 1426 1423 1420 1416 1413 1409 1405 1401 1398 1393 1389 1385 1380 1376 1372 1368 1364 1360 1356 1354 1352 1350 1348 1346 1346 1346 1346 1348 1351 1354 1357 1362 1366
1441 1440 1438 1437 1435 1433 1432 1430 1428 1425 1422 1419 1416 1413 1410 1406 1402 1398 1393 1390 1386 1381 1377 1373 1369 1365 1361 1356 1352 1349 1346 1344 1343 1341 1340 1339 1339 1340 1342 1345 1347 1351 1355 1360
1435 1433 1432 1431 1429 1426 1424 1422 1420 1418 1415 1412 1409 1406 1403 1399 1395 1391 1387 1383 1378 1374 1370 1366 1362 1358 1353 1349 1345 1342 1339 1337 1336 1335 1334 1334 1334 1335 1337 1339 1342 1345 1350 1355
1428 1427 1425 1424 1422 1420 1417 1415 1413 1410 1408 1405 1402 1399 1396 1392 1388 1384 1380 1375 1371 1367 1363 1359 1355 1351 1346 1342 1338 1335 1333 1331 1330 1329 1329 1329 1329 1330 1332 1334 1338 1341 1345 1350
1421 1420 1419 1417 1415 1413 1411 1408 1406 1403 1400 1397 1394 1391 1388 1385 1381 1377 1373 1368 1364 1360 1356 1352 1348 1344 1340 1336 1333 1330 1328 1326 1325 1324 1324 1324 1325 1326 1328 1331 1334 1338 1342 1347
1414 1412 1411 1409 1408 1406 1404 1402 1399 1396 1393 1390 1387 1384 1381 1377 1374 1370 1365 1361 1357 1353 1349 1345 1342 1338 1334 1331 1327 1325 1323 1322 1321 1320 1320 1320 1321 1323 1325 1328 1331 1335 1339 1344